Flag for Germany Weather past 2 weeks in Weimar, Thuringia, Germany

Now
48 °F

Clear.


Feels Like: 44 °F
Forecast: 50 / 65 °F
Wind: 10 mph from Southwest

Location: Erfurt-Bindersleben

Current Time: Apr 25, 2015 at 4:43:48 AM

Latest Report: Apr 25, 2015 at 4:20 AM


Visibility: 10 mi

Pressure: 29.83 "Hg

Humidity: 58%

Dew point: 34 °F

Location of WeimarLocation

Historic Weather in Weimar — Graph

°F

Weimar temperature yesterday

Maximum temperature yesterday: 66 °F (at 3:50 PM)
Minimum temperature yesterday: 37 °F (at 4:50 AM)
Average temperature yesterday: 54 °F

Past Weeks' High & Low Weather Summary

 TemperatureHumidityPressure
High73 °F (Apr 15, 3:50 PM)100% (Apr 23, 12:50 AM)30.42 "Hg (Apr 23, 12:50 AM)
Low28 °F (Apr 19, 6:20 AM)21% (Apr 21, 6:20 PM)29.83 "Hg (Apr 25, 3:20 AM)
Average50 °F60%30.17 "Hg
* Reported Apr 10 3:20 AM — Apr 25 3:20 AM, Weimar, Weather by CustomWeather, © 2015

Note: Actual official high and low records may vary slightly from our data, if they occured in-between our weather recording intervals... More about our weather records

Advertising

Weimar weather history for previous 24 hours

 ConditionsComfort  
Time TempWeatherWind HumidityBarometerVisibility
3:20 AM
Sat, Apr 25
50 °FClear.10 mph54%29.83 "Hg10 mi
2:50 AM50 °FClear.9 mph54%29.86 "Hg10 mi
2:20 AM50 °FClear.10 mph50%29.86 "Hg10 mi
1:50 AM50 °FClear.9 mph50%29.86 "Hg10 mi
1:20 AM50 °FClear.9 mph54%29.86 "Hg10 mi
12:50 AM50 °FClear.9 mph54%29.86 "Hg10 mi
12:20 AM50 °FClear.10 mph54%29.86 "Hg10 mi
11:20 PM
Fri, Apr 24
54 °FClear.9 mph47%29.86 "Hg10 mi
10:50 PM54 °FClear.9 mph47%29.86 "Hg10 mi
10:20 PM54 °FClear.9 mph47%29.86 "Hg10 mi
9:50 PM55 °FClear.8 mph44%29.89 "Hg10 mi
9:20 PM57 °FSunny.9 mph39%29.89 "Hg10 mi
8:50 PM57 °FSunny.9 mph41%29.86 "Hg10 mi
8:20 PM59 °FSunny.9 mph39%29.86 "Hg10 mi
7:50 PM61 °FSunny.7 mph39%29.86 "Hg10 mi
7:20 PM61 °FSunny.8 mph39%29.86 "Hg10 mi
6:50 PM63 °FSunny.9 mph37%29.89 "Hg10 mi
6:20 PM64 °FSunny.9 mph32%29.89 "Hg10 mi
5:50 PM64 °FSunny.10 mph32%29.89 "Hg10 mi
5:20 PM66 °FSunny.12 mph30%29.89 "Hg10 mi
4:50 PM66 °FSunny.10 mph32%29.89 "Hg10 mi
4:20 PM66 °FSunny.10 mph30%29.89 "Hg10 mi
3:50 PM66 °FSunny.10 mph30%29.89 "Hg10 mi
3:20 PM64 °FSunny.10 mph34%29.92 "Hg10 mi
2:50 PM64 °FSunny.9 mph37%29.92 "Hg10 mi
2:20 PM64 °FSunny.12 mph34%29.92 "Hg10 mi
1:50 PM64 °FSunny.14 mph34%29.92 "Hg10 mi
1:20 PM63 °FSunny.14 mph37%29.95 "Hg10 mi
12:50 PM63 °FPassing clouds.10 mph39%29.95 "HgN/A
12:20 PM63 °FSunny.13 mph42%29.95 "Hg10 mi
11:50 AM61 °FSunny.14 mph42%29.98 "Hg10 mi
11:20 AM61 °FSunny.13 mph39%29.98 "Hg10 mi
10:50 AM59 °FSunny.14 mph42%29.98 "Hg10 mi
10:20 AM59 °FPassing clouds.9 mph45%29.98 "HgN/A
9:50 AM57 °FSunny.8 mph51%29.98 "Hg10 mi
9:20 AM54 °FSunny.7 mph58%29.98 "Hg10 mi
8:50 AM50 °FSunny.7 mph67%29.98 "Hg10 mi
8:20 AM48 °FSunny.9 mph66%29.98 "Hg10 mi
7:50 AM45 °FSunny.9 mph76%29.98 "Hg10 mi
7:20 AM43 °FSunny.9 mph76%29.98 "Hg10 mi
6:50 AM37 °FClear.8 mph87%29.98 "Hg10 mi
6:20 AM37 °FClear.7 mph81%29.98 "Hg10 mi
5:50 AM39 °FClear.8 mph81%29.98 "Hg10 mi
4:50 AM37 °FClear.9 mph87%29.98 "Hg10 mi
4:20 AM41 °FClear.10 mph81%29.98 "Hg10 mi
Weather by CustomWeather, © 2015

See weather overviewHow to use our weather pages